Location: Dillon
(41.1766°N, 107.0923°W)
Time: 23:25:22
(UTC+00:00)

QB50P2 - Pass Details

Date: 04 July 2022
Orbit: 590 x 605 km, 97.9° (Epoch: 18 August)

Event Time Altitude Azimuth Distance (km) Brightness Sun altitude
Rises 08:40:22 0° 10° (N) 2,863 ? -22.8°
Reaches altitude 10° 08:42:33 10° 9° (N) 1,957 ? -22.7°
Maximum altitude 08:46:48 75° 285° (WNW) 629 ? -22.4°
Enters shadow 08:47:09 70° 240° (WSW) 647 ? -22.3°
